Hourly Weather Otradnoe

Today, 23 July, Friday

Time Temperature Precipitation Wind Pressure Humidity
00:00 +17°C° 0 mm 4 mps 758 mmHg 85%
01:00 +16°C° 0 mm 5 mps 757 mmHg 85%
02:00 +16°C° 0 mm 5 mps 757 mmHg 85%
03:00 +15°C° 0 mm 5 mps 757 mmHg 85%
04:00 +15°C° 0 mm 5 mps 757 mmHg 85%
05:00 +16°C° 0 mm 5 mps 757 mmHg 80%
06:00 +19°C° 0 mm 5 mps 757 mmHg 75%
07:00 +20°C° 0 mm 5 mps 757 mmHg 70%
08:00 +21°C° 0 mm 5 mps 757 mmHg 67%
09:00 +21°C° 0 mm 5 mps 757 mmHg 65%
10:00 +22°C° 0 mm 5 mps 757 mmHg 62%
11:00 +22°C° 0 mm 5 mps 757 mmHg 60%
12:00 +22°C° 0 mm 5 mps 757 mmHg 58%
13:00 +23°C° 0 mm 5 mps 757 mmHg 56%
14:00 +23°C° 0 mm 5 mps 757 mmHg 58%
15:00 +23°C° 0 mm 5 mps 757 mmHg 61%
16:00 +23°C° 0 mm 5 mps 756 mmHg 63%
17:00 +22°C° 0 mm 5 mps 756 mmHg 69%
18:00 +21°C° 0 mm 4 mps 756 mmHg 75%
19:00 +20°C° 0 mm 4 mps 756 mmHg 82%
20:00 +19°C° 0 mm 4 mps 757 mmHg 84%
21:00 +18°C° 0 mm 4 mps 757 mmHg 86%
22:00 +18°C° 0 mm 3 mps 757 mmHg 88%
23:00 +17°C° 0 mm 3 mps 757 mmHg 90%

Tomorrow, 24 July, Saturday

Time Temperature Precipitation Wind Pressure Humidity
00:00 +17°C° 0 mm 3 mps 757 mmHg 91%
01:00 +17°C° 0 mm 3 mps 757 mmHg 92%
02:00 +17°C° 0 mm 3 mps 757 mmHg 90%
03:00 +17°C° 0 mm 3 mps 757 mmHg 89%
04:00 +17°C° 0 mm 3 mps 757 mmHg 87%
05:00 +18°C° 0 mm 3 mps 757 mmHg 82%
06:00 +19°C° 0 mm 3 mps 757 mmHg 76%
07:00 +20°C° 0 mm 3 mps 757 mmHg 71%
08:00 +21°C° 0 mm 3 mps 757 mmHg 65%
09:00 +22°C° 0 mm 3 mps 758 mmHg 60%
10:00 +24°C° 0 mm 3 mps 758 mmHg 54%
11:00 +24°C° 0 mm 3 mps 758 mmHg 52%
12:00 +24°C° 0 mm 3 mps 758 mmHg 51%
13:00 +25°C° 0 mm 3 mps 758 mmHg 49%
14:00 +24°C° 0 mm 3 mps 758 mmHg 49%
15:00 +24°C° 0 mm 3 mps 758 mmHg 49%
16:00 +24°C° 0 mm 3 mps 758 mmHg 48%
17:00 +21°C° 0 mm 3 mps 757 mmHg 55%
18:00 +20°C° 0 mm 3 mps 757 mmHg 61%
19:00 +19°C° 0 mm 3 mps 757 mmHg 67%
20:00 +17°C° 0 mm 3 mps 757 mmHg 72%
21:00 +16°C° 0 mm 3 mps 758 mmHg 77%
22:00 +14°C° 0 mm 3 mps 758 mmHg 83%
23:00 +14°C° 0 mm 3 mps 758 mmHg 83%

Day after tomorrow, 25 July, Sunday

Time Temperature Precipitation Wind Pressure Humidity
00:00 +14°C° 0 mm 3 mps 758 mmHg 83%
01:00 +15°C° 0 mm 2 mps 758 mmHg 83%
02:00 +14°C° 0 mm 3 mps 758 mmHg 83%
03:00 +14°C° 0 mm 3 mps 758 mmHg 83%
04:00 +14°C° 0 mm 3 mps 757 mmHg 83%
05:00 +17°C° 0 mm 3 mps 758 mmHg 77%
06:00 +19°C° 0 mm 3 mps 758 mmHg 71%
07:00 +21°C° 0 mm 4 mps 758 mmHg 65%
08:00 +22°C° 0 mm 4 mps 758 mmHg 61%
09:00 +25°C° 0 mm 4 mps 758 mmHg 58%
10:00 +26°C° 0 mm 4 mps 758 mmHg 54%
11:00 +27°C° 0 mm 4 mps 758 mmHg 50%
12:00 +28°C° 0 mm 4 mps 757 mmHg 47%
13:00 +29°C° 0 mm 5 mps 757 mmHg 43%
14:00 +28°C° 0 mm 5 mps 757 mmHg 44%
15:00 +28°C° 0 mm 5 mps 757 mmHg 46%
16:00 +28°C° 0 mm 5 mps 757 mmHg 48%
17:00 +27°C° 0 mm 5 mps 757 mmHg 52%
18:00 +26°C° 0 mm 5 mps 757 mmHg 56%
19:00 +25°C° 0 mm 5 mps 757 mmHg 60%
20:00 +23°C° 0 mm 5 mps 757 mmHg 62%
21:00 +23°C° 0 mm 5 mps 757 mmHg 64%
22:00 +22°C° 0 mm 5 mps 757 mmHg 65%
23:00 +21°C° 0 mm 5 mps 757 mmHg 68%

26 July, Monday

Time Temperature Precipitation Wind Pressure Humidity
00:00 +21°C° 0 mm 5 mps 757 mmHg 71%
01:00 +20°C° 0 mm 5 mps 757 mmHg 73%
02:00 +19°C° 0.1 mm 5 mps 757 mmHg 78%
03:00 +19°C° 0.1 mm 6 mps 756 mmHg 82%
04:00 +17°C° 0.1 mm 6 mps 756 mmHg 87%
05:00 +19°C° 0.2 mm 5 mps 756 mmHg 86%
06:00 +19°C° 0.2 mm 5 mps 757 mmHg 84%
07:00 +20°C° 0.2 mm 5 mps 757 mmHg 83%
08:00 +20°C° 0.3 mm 6 mps 757 mmHg 84%
09:00 +20°C° 0.3 mm 6 mps 756 mmHg 84%
10:00 +20°C° 0.3 mm 6 mps 756 mmHg 85%
11:00 +23°C° 0 mm 7 mps 756 mmHg 73%
12:00 +26°C° 0 mm 7 mps 756 mmHg 60%
13:00 +29°C° 0 mm 7 mps 755 mmHg 48%
14:00 +29°C° 0 mm 8 mps 755 mmHg 49%
15:00 +29°C° 0 mm 8 mps 755 mmHg 51%
16:00 +29°C° 0 mm 8 mps 755 mmHg 52%
17:00 +28°C° 0.3 mm 7 mps 754 mmHg 61%
18:00 +26°C° 0.3 mm 7 mps 754 mmHg 70%
19:00 +23°C° 0.3 mm 7 mps 754 mmHg 79%
20:00 +22°C° 0.6 mm 7 mps 754 mmHg 83%
21:00 +21°C° 0.6 mm 8 mps 754 mmHg 88%
22:00 +20°C° 0.6 mm 8 mps 753 mmHg 93%
23:00 +20°C° 0.3 mm 8 mps 753 mmHg 93%

27 July, Tuesday

Time Temperature Precipitation Wind Pressure Humidity
00:00 +20°C° 0.3 mm 7 mps 753 mmHg 94%
01:00 +18°C° 0.3 mm 7 mps 753 mmHg 95%
02:00 +19°C° 0 mm 6 mps 753 mmHg 94%
03:00 +20°C° 0 mm 5 mps 753 mmHg 94%
04:00 +20°C° 0 mm 5 mps 753 mmHg 94%
05:00 +21°C° 0 mm 4 mps 753 mmHg 91%
06:00 +22°C° 0 mm 4 mps 753 mmHg 88%
07:00 +23°C° 0 mm 4 mps 753 mmHg 84%
08:00 +25°C° 0 mm 4 mps 754 mmHg 78%
09:00 +25°C° 0 mm 4 mps 754 mmHg 72%
10:00 +26°C° 0 mm 4 mps 754 mmHg 66%
11:00 +26°C° 0 mm 3 mps 754 mmHg 65%
12:00 +26°C° 0 mm 3 mps 754 mmHg 63%
13:00 +26°C° 0 mm 2 mps 754 mmHg 61%
14:00 +26°C° 0.1 mm 2 mps 754 mmHg 62%
15:00 +26°C° 0.1 mm 2 mps 754 mmHg 62%
16:00 +26°C° 0.1 mm 1 mps 754 mmHg 63%
17:00 +25°C° 0.1 mm 2 mps 754 mmHg 67%
18:00 +24°C° 0.1 mm 2 mps 754 mmHg 72%
19:00 +23°C° 0.1 mm 2 mps 754 mmHg 76%
20:00 +21°C° 0.1 mm 2 mps 754 mmHg 80%
21:00 +20°C° 0.1 mm 2 mps 754 mmHg 84%
22:00 +19°C° 0.1 mm 2 mps 755 mmHg 88%
23:00 +19°C° 0.1 mm 2 mps 754 mmHg 88%

28 July, Wednesday

Time Temperature Precipitation Wind Pressure Humidity
00:00 +19°C° 0.1 mm 2 mps 754 mmHg 88%
01:00 +19°C° 0.1 mm 2 mps 754 mmHg 88%
02:00 +19°C° 0 mm 2 mps 754 mmHg 88%
03:00 +19°C° 0 mm 2 mps 754 mmHg 87%
04:00 +19°C° 0 mm 2 mps 754 mmHg 87%
05:00 +20°C° 0.2 mm 3 mps 754 mmHg 84%
06:00 +21°C° 0.2 mm 3 mps 754 mmHg 81%
07:00 +22°C° 0.2 mm 4 mps 754 mmHg 78%
08:00 +22°C° 0.4 mm 4 mps 754 mmHg 80%
09:00 +22°C° 0.4 mm 4 mps 754 mmHg 81%
10:00 +22°C° 0.4 mm 5 mps 754 mmHg 83%
11:00 +23°C° 0.3 mm 5 mps 754 mmHg 75%
12:00 +25°C° 0.3 mm 5 mps 754 mmHg 66%
13:00 +26°C° 0.3 mm 5 mps 754 mmHg 58%
14:00 +26°C° 0 mm 4 mps 755 mmHg 58%
15:00 +26°C° 0 mm 4 mps 755 mmHg 58%
16:00 +26°C° 0 mm 4 mps 755 mmHg 58%
17:00 +25°C° 0 mm 4 mps 755 mmHg 64%
18:00 +23°C° 0 mm 4 mps 755 mmHg 70%
19:00 +21°C° 0 mm 4 mps 755 mmHg 77%
20:00 +21°C° 0 mm 3 mps 755 mmHg 78%
21:00 +20°C° 0 mm 2 mps 755 mmHg 78%
22:00 +20°C° 0 mm 1 mps 755 mmHg 79%
23:00 +19°C° 0 mm 2 mps 755 mmHg 80%
Show more